Location: Breungeshain
(50.5000°N, 9.2000°E)
Time: 07:44:36
(UTC+00:00)

ISS - Pass Details

Date: 17 May 2018
Orbit: 402 x 407 km, 51.6° (Epoch: 27 May)

Event Time Altitude Azimuth Distance (km) Brightness Sun altitude
Exits shadow 02:11:26 - 282° (WNW) 2,276 -0.3 -10.6°
Reaches altitude 10° 02:13:25 10° 283° (WNW) 1,460 -1.3 -10.4°
Maximum altitude 02:16:41 83° 9° (N) 411 -3.8 -10.1°
Drops below altitude 10° 02:19:57 10° 101° (E) 1,457 -0.6 -9.7°
Sets 02:22:02 0° 102° (ESE) 2,316 0.5 -9.5°
